contact:dominique.lefevre@mio.osupytheas.fr, maurice.libes@osupytheas.fr, didier.mallarino@osupytheas.fr
Project:EMSO http://www.emso-fr.org/EMSO-France
Depth: 2436.0 m
Title:EMSO Ligure Ouest : Data MII capteur MICROCAT
DateTime_Computer,Latitude,Longitude,Temperature,Conductivity,Pressure,DateTime_Instrument
DateTime_Computer,Latitude,Longitude,degC,S m-1,dbar,DateTime_Instrument
2022-03-20T00:02:19Z,42.805,6.029,13.3019,4.60058,2470.46,2022-3-20T02:03:55Z
2022-03-20T00:05:22Z,42.805,6.029,13.3008,4.60058,2470.437,2022-3-20T02:06:58Z
2022-03-20T00:08:25Z,42.805,6.029,13.3020,4.60070,2470.497,2022-3-20T02:10:01Z
2022-03-20T00:11:28Z,42.805,6.029,13.3014,4.60068,2470.474,2022-3-20T02:13:04Z
2022-03-20T00:14:31Z,42.805,6.029,13.3024,4.60069,2470.437,2022-3-20T02:16:07Z
2022-03-20T00:17:34Z,42.805,6.029,13.3021,4.60089,2470.46,2022-3-20T02:19:10Z
2022-03-20T00:20:37Z,42.805,6.029,13.3015,4.60067,2470.483,2022-3-20T02:22:14Z
2022-03-20T00:23:40Z,42.805,6.029,13.3015,4.60064,2470.474,2022-3-20T02:25:17Z
2022-03-20T00:26:44Z,42.805,6.029,13.3013,4.60062,2470.45,2022-3-20T02:28:20Z
2022-03-20T00:29:47Z,42.805,6.029,13.3013,4.60057,2470.46,2022-3-20T02:31:23Z
2022-03-20T00:32:50Z,42.805,6.029,13.3021,4.60067,2470.46,2022-3-20T02:34:26Z
2022-03-20T00:35:53Z,42.805,6.029,13.3015,4.60055,2470.474,2022-3-20T02:37:29Z
2022-03-20T00:38:56Z,42.805,6.029,13.3013,4.60055,2470.483,2022-3-20T02:40:32Z
2022-03-20T00:41:59Z,42.805,6.029,13.3013,4.60063,2470.46,2022-3-20T02:43:35Z
2022-03-20T00:45:02Z,42.805,6.029,13.3013,4.60057,2470.46,2022-3-20T02:46:38Z
2022-03-20T00:48:05Z,42.805,6.029,13.3014,4.60064,2470.497,2022-3-20T02:49:42Z
2022-03-20T00:51:08Z,42.805,6.029,13.3015,4.60074,2470.437,2022-3-20T02:52:45Z
2022-03-20T00:54:12Z,42.805,6.029,13.3031,4.60088,2470.474,2022-3-20T02:55:48Z
2022-03-20T00:57:15Z,42.805,6.029,13.3043,4.60087,2470.46,2022-3-20T02:58:51Z
2022-03-20T01:00:18Z,42.805,6.029,13.3026,4.60102,2470.404,2022-3-20T03:01:54Z
2022-03-20T01:03:21Z,42.805,6.029,13.3041,4.60105,2470.437,2022-3-20T03:04:57Z
2022-03-20T01:06:24Z,42.805,6.029,13.3051,4.60091,2470.404,2022-3-20T03:08:00Z
2022-03-20T01:09:27Z,42.805,6.029,13.3044,4.60095,2470.413,2022-3-20T03:11:03Z
2022-03-20T01:12:30Z,42.805,6.029,13.3037,4.60102,2470.437,2022-3-20T03:14:07Z
2022-03-20T01:15:33Z,42.805,6.029,13.3036,4.60114,2470.437,2022-3-20T03:17:10Z
2022-03-20T01:18:37Z,42.805,6.029,13.3038,4.60110,2470.437,2022-3-20T03:20:13Z
2022-03-20T01:21:40Z,42.805,6.029,13.3042,4.60090,2470.427,2022-3-20T03:23:16Z
2022-03-20T01:24:43Z,42.805,6.029,13.3046,4.60105,2470.45,2022-3-20T03:26:19Z
2022-03-20T01:27:46Z,42.805,6.029,13.3034,4.60106,2470.413,2022-3-20T03:29:22Z
2022-03-20T01:30:49Z,42.805,6.029,13.3035,4.60091,2470.427,2022-3-20T03:32:25Z
2022-03-20T01:33:52Z,42.805,6.029,13.3046,4.60133,2470.427,2022-3-20T03:35:28Z
2022-03-20T01:36:55Z,42.805,6.029,13.3048,4.60123,2470.39,2022-3-20T03:38:32Z
2022-03-20T01:39:58Z,42.805,6.029,13.3034,4.60133,2470.427,2022-3-20T03:41:35Z
2022-03-20T01:43:02Z,42.805,6.029,13.3037,4.60134,2470.427,2022-3-20T03:44:38Z
2022-03-20T01:46:05Z,42.805,6.029,13.3053,4.60127,2470.404,2022-3-20T03:47:41Z
2022-03-20T01:49:08Z,42.805,6.029,13.3036,4.60100,2470.413,2022-3-20T03:50:44Z
2022-03-20T01:52:11Z,42.805,6.029,13.3066,4.60142,2470.413,2022-3-20T03:53:47Z
2022-03-20T01:55:14Z,42.805,6.029,13.3048,4.60108,2470.38,2022-3-20T03:56:50Z
2022-03-20T01:58:17Z,42.805,6.029,13.3063,4.60111,2470.427,2022-3-20T03:59:53Z
2022-03-20T02:01:20Z,42.805,6.029,13.3053,4.60123,2470.404,2022-3-20T04:02:56Z
2022-03-20T02:04:23Z,42.805,6.029,13.3058,4.60125,2470.427,2022-3-20T04:06:00Z
2022-03-20T02:07:27Z,42.805,6.029,13.3058,4.60109,2470.427,2022-3-20T04:09:03Z
2022-03-20T02:10:30Z,42.805,6.029,13.3034,4.60119,2470.404,2022-3-20T04:12:06Z
2022-03-20T02:13:33Z,42.805,6.029,13.3049,4.60141,2470.427,2022-3-20T04:15:09Z
2022-03-20T02:16:36Z,42.805,6.029,13.3043,4.60131,2470.366,2022-3-20T04:18:12Z
2022-03-20T02:19:39Z,42.805,6.029,13.3035,4.60101,2470.39,2022-3-20T04:21:15Z
2022-03-20T02:22:42Z,42.805,6.029,13.3046,4.60099,2470.427,2022-3-20T04:24:18Z
2022-03-20T02:25:45Z,42.805,6.029,13.3070,4.60066,2470.39,2022-3-20T04:27:21Z
2022-03-20T02:28:48Z,42.805,6.029,13.3039,4.60069,2470.366,2022-3-20T04:30:25Z
2022-03-20T02:31:51Z,42.805,6.029,13.3030,4.60079,2470.39,2022-3-20T04:33:28Z
2022-03-20T02:34:55Z,42.805,6.029,13.3048,4.60058,2470.39,2022-3-20T04:36:31Z
2022-03-20T02:37:58Z,42.805,6.029,13.3029,4.60078,2470.413,2022-3-20T04:39:34Z
2022-03-20T02:41:01Z,42.805,6.029,13.3024,4.60083,2470.404,2022-3-20T04:42:37Z
2022-03-20T02:44:04Z,42.805,6.029,13.3033,4.60070,2470.413,2022-3-20T04:45:40Z
2022-03-20T02:47:07Z,42.805,6.029,13.3051,4.60090,2470.39,2022-3-20T04:48:43Z
2022-03-20T02:50:10Z,42.805,6.029,13.3049,4.60071,2470.366,2022-3-20T04:51:46Z
2022-03-20T02:53:13Z,42.805,6.029,13.3036,4.60082,2470.366,2022-3-20T04:54:50Z
2022-03-20T02:56:16Z,42.805,6.029,13.3043,4.60070,2470.404,2022-3-20T04:57:53Z
2022-03-20T02:59:20Z,42.805,6.029,13.3054,4.60067,2470.404,2022-3-20T05:00:56Z
2022-03-20T03:02:23Z,42.805,6.029,13.3029,4.60054,2470.39,2022-3-20T05:03:59Z
2022-03-20T03:05:26Z,42.805,6.029,13.3031,4.60059,2470.39,2022-3-20T05:07:02Z
2022-03-20T03:08:29Z,42.805,6.029,13.3032,4.60064,2470.39,2022-3-20T05:10:05Z
2022-03-20T03:11:32Z,42.805,6.029,13.3027,4.60082,2470.39,2022-3-20T05:13:08Z
2022-03-20T03:14:35Z,42.805,6.029,13.3035,4.60091,2470.38,2022-3-20T05:16:11Z
2022-03-20T03:17:38Z,42.805,6.029,13.3022,4.60061,2470.441,2022-3-20T05:19:15Z
2022-03-20T03:20:41Z,42.805,6.029,13.3033,4.60060,2470.39,2022-3-20T05:22:18Z
2022-03-20T03:23:45Z,42.805,6.029,13.3039,4.60062,2470.39,2022-3-20T05:25:21Z
2022-03-20T03:26:48Z,42.805,6.029,13.3024,4.60061,2470.404,2022-3-20T05:28:24Z
2022-03-20T03:29:51Z,42.805,6.029,13.3026,4.60061,2470.39,2022-3-20T05:31:27Z
2022-03-20T03:32:54Z,42.805,6.029,13.3034,4.60069,2470.38,2022-3-20T05:34:30Z
2022-03-20T03:35:57Z,42.805,6.029,13.3035,4.60060,2470.413,2022-3-20T05:37:33Z
2022-03-20T03:39:00Z,42.805,6.029,13.3030,4.60062,2470.404,2022-3-20T05:40:36Z
2022-03-20T03:42:03Z,42.805,6.029,13.3034,4.60074,2470.413,2022-3-20T05:43:40Z
2022-03-20T03:45:06Z,42.805,6.029,13.3042,4.60069,2470.427,2022-3-20T05:46:43Z
2022-03-20T03:48:10Z,42.805,6.029,13.3040,4.60064,2470.39,2022-3-20T05:49:46Z
2022-03-20T03:51:13Z,42.805,6.029,13.3038,4.60062,2470.38,2022-3-20T05:52:49Z
2022-03-20T03:54:16Z,42.805,6.029,13.3032,4.60058,2470.404,2022-3-20T05:55:52Z
2022-03-20T03:57:19Z,42.805,6.029,13.3039,4.60058,2470.404,2022-3-20T05:58:55Z
2022-03-20T04:00:22Z,42.805,6.029,13.3038,4.60061,2470.39,2022-3-20T06:01:58Z
2022-03-20T04:03:25Z,42.805,6.029,13.3029,4.60063,2470.39,2022-3-20T06:05:01Z
2022-03-20T04:06:28Z,42.805,6.029,13.3038,4.60057,2470.413,2022-3-20T06:08:05Z
2022-03-20T04:09:31Z,42.805,6.029,13.3027,4.60062,2470.437,2022-3-20T06:11:08Z
2022-03-20T04:12:34Z,42.805,6.029,13.3031,4.60062,2470.427,2022-3-20T06:14:11Z
2022-03-20T04:15:38Z,42.805,6.029,13.3029,4.60058,2470.39,2022-3-20T06:17:14Z
2022-03-20T04:18:41Z,42.805,6.029,13.3028,4.60057,2470.45,2022-3-20T06:20:17Z
2022-03-20T04:21:44Z,42.805,6.029,13.3026,4.60056,2470.427,2022-3-20T06:23:20Z
2022-03-20T04:24:47Z,42.805,6.029,13.3026,4.60057,2470.39,2022-3-20T06:26:23Z
2022-03-20T04:27:50Z,42.805,6.029,13.3029,4.60069,2470.427,2022-3-20T06:29:26Z
2022-03-20T04:30:53Z,42.805,6.029,13.3032,4.60066,2470.45,2022-3-20T06:32:29Z
2022-03-20T04:33:56Z,42.805,6.029,13.3032,4.60057,2470.437,2022-3-20T06:35:33Z
2022-03-20T04:36:59Z,42.805,6.029,13.3027,4.60061,2470.39,2022-3-20T06:38:36Z
2022-03-20T04:40:03Z,42.805,6.029,13.3041,4.60061,2470.45,2022-3-20T06:41:39Z
2022-03-20T04:43:06Z,42.805,6.029,13.3029,4.60076,2470.45,2022-3-20T06:44:42Z
2022-03-20T04:46:09Z,42.805,6.029,13.3031,4.60057,2470.437,2022-3-20T06:47:45Z
2022-03-20T04:49:12Z,42.805,6.029,13.3040,4.60068,2470.474,2022-3-20T06:50:48Z
2022-03-20T04:52:15Z,42.805,6.029,13.3031,4.60062,2470.437,2022-3-20T06:53:51Z
2022-03-20T04:55:18Z,42.805,6.029,13.3025,4.60064,2470.45,2022-3-20T06:56:54Z
2022-03-20T04:58:21Z,42.805,6.029,13.3032,4.60056,2470.474,2022-3-20T06:59:58Z
2022-03-20T05:01:24Z,42.805,6.029,13.3037,4.60069,2470.437,2022-3-20T07:03:01Z
2022-03-20T05:04:28Z,42.805,6.029,13.3023,4.60069,2470.474,2022-3-20T07:06:04Z
2022-03-20T05:07:31Z,42.805,6.029,13.3023,4.60057,2470.46,2022-3-20T07:09:07Z
2022-03-20T05:10:34Z,42.805,6.029,13.3027,4.60064,2470.437,2022-3-20T07:12:10Z
2022-03-20T05:13:37Z,42.805,6.029,13.3026,4.60057,2470.46,2022-3-20T07:15:13Z
2022-03-20T05:16:40Z,42.805,6.029,13.3035,4.60074,2470.507,2022-3-20T07:18:16Z
2022-03-20T05:19:43Z,42.805,6.029,13.3033,4.60069,2470.46,2022-3-20T07:21:19Z
2022-03-20T05:22:46Z,42.805,6.029,13.3030,4.60068,2470.46,2022-3-20T07:24:23Z
2022-03-20T05:25:49Z,42.805,6.029,13.3026,4.60060,2470.497,2022-3-20T07:27:26Z
2022-03-20T05:28:52Z,42.805,6.029,13.3039,4.60081,2470.507,2022-3-20T07:30:29Z
2022-03-20T05:31:56Z,42.805,6.029,13.3031,4.60071,2470.483,2022-3-20T07:33:32Z
2022-03-20T05:34:59Z,42.805,6.029,13.3034,4.60078,2470.483,2022-3-20T07:36:35Z
2022-03-20T05:38:02Z,42.805,6.029,13.3028,4.60062,2470.507,2022-3-20T07:39:38Z
2022-03-20T05:41:05Z,42.805,6.029,13.3027,4.60064,2470.507,2022-3-20T07:42:41Z
2022-03-20T05:44:08Z,42.805,6.029,13.3026,4.60068,2470.497,2022-3-20T07:45:44Z
2022-03-20T05:47:11Z,42.805,6.029,13.3024,4.60060,2470.483,2022-3-20T07:48:48Z
2022-03-20T05:50:14Z,42.805,6.029,13.3024,4.60067,2470.507,2022-3-20T07:51:51Z
2022-03-20T05:53:17Z,42.805,6.029,13.3024,4.60057,2470.52,2022-3-20T07:54:54Z
2022-03-20T05:56:21Z,42.805,6.029,13.3026,4.60074,2470.544,2022-3-20T07:57:57Z
2022-03-20T05:59:24Z,42.805,6.029,13.3026,4.60065,2470.507,2022-3-20T08:01:00Z
2022-03-20T06:02:27Z,42.805,6.029,13.3029,4.60067,2470.53,2022-3-20T08:04:03Z
2022-03-20T06:05:30Z,42.805,6.029,13.3012,4.60064,2470.544,2022-3-20T08:07:06Z
2022-03-20T06:08:33Z,42.805,6.029,13.3029,4.60064,2470.544,2022-3-20T08:10:09Z
2022-03-20T06:11:36Z,42.805,6.029,13.3035,4.60062,2470.53,2022-3-20T08:13:12Z
2022-03-20T06:14:39Z,42.805,6.029,13.3021,4.60076,2470.567,2022-3-20T08:16:16Z
2022-03-20T06:17:42Z,42.805,6.029,13.3018,4.60053,2470.507,2022-3-20T08:19:19Z
2022-03-20T06:20:46Z,42.805,6.029,13.3020,4.60051,2470.53,2022-3-20T08:22:22Z
2022-03-20T06:23:49Z,42.805,6.029,13.3024,4.60081,2470.577,2022-3-20T08:25:25Z
2022-03-20T06:26:52Z,42.805,6.029,13.3021,4.60061,2470.577,2022-3-20T08:28:28Z
2022-03-20T06:29:55Z,42.805,6.029,13.3020,4.60070,2470.567,2022-3-20T08:31:31Z
2022-03-20T06:32:58Z,42.805,6.029,13.3026,4.60060,2470.553,2022-3-20T08:34:34Z
2022-03-20T06:36:01Z,42.805,6.029,13.3028,4.60079,2470.614,2022-3-20T08:37:37Z
2022-03-20T06:39:04Z,42.805,6.029,13.3027,4.60069,2470.567,2022-3-20T08:40:41Z
2022-03-20T06:42:07Z,42.805,6.029,13.3014,4.60064,2470.6,2022-3-20T08:43:44Z
2022-03-20T06:45:11Z,42.805,6.029,13.3020,4.60068,2470.567,2022-3-20T08:46:47Z
2022-03-20T06:48:14Z,42.805,6.029,13.3025,4.60081,2470.6,2022-3-20T08:49:50Z
2022-03-20T06:51:17Z,42.805,6.029,13.3014,4.60060,2470.567,2022-3-20T08:52:53Z
2022-03-20T06:54:20Z,42.805,6.029,13.3029,4.60104,2470.591,2022-3-20T08:55:56Z
2022-03-20T06:57:23Z,42.805,6.029,13.3020,4.60063,2470.614,2022-3-20T08:58:59Z
2022-03-20T07:00:26Z,42.805,6.029,13.3024,4.60069,2470.6,2022-3-20T09:02:02Z
2022-03-20T07:03:29Z,42.805,6.029,13.3028,4.60056,2470.637,2022-3-20T09:05:06Z
2022-03-20T07:06:32Z,42.805,6.029,13.3025,4.60073,2470.6,2022-3-20T09:08:09Z
2022-03-20T07:09:36Z,42.805,6.029,13.3038,4.60072,2470.614,2022-3-20T09:11:12Z
2022-03-20T07:12:39Z,42.805,6.029,13.3028,4.60061,2470.614,2022-3-20T09:14:15Z
2022-03-20T07:15:42Z,42.805,6.029,13.3010,4.60057,2470.6,2022-3-20T09:17:18Z
2022-03-20T07:18:45Z,42.805,6.029,13.3006,4.60060,2470.637,2022-3-20T09:20:21Z
2022-03-20T07:21:48Z,42.805,6.029,13.3006,4.60063,2470.624,2022-3-20T09:23:24Z
2022-03-20T07:24:51Z,42.805,6.029,13.3004,4.60056,2470.6,2022-3-20T09:26:27Z
2022-03-20T07:27:54Z,42.805,6.029,13.3036,4.60078,2470.6,2022-3-20T09:29:31Z
2022-03-20T07:30:57Z,42.805,6.029,13.3042,4.60074,2470.624,2022-3-20T09:32:34Z
2022-03-20T07:34:01Z,42.805,6.029,13.3054,4.60074,2470.6,2022-3-20T09:35:37Z
2022-03-20T07:37:04Z,42.805,6.029,13.3013,4.60059,2470.577,2022-3-20T09:38:40Z
2022-03-20T07:40:07Z,42.805,6.029,13.3011,4.60070,2470.6,2022-3-20T09:41:43Z
2022-03-20T07:43:10Z,42.805,6.029,13.3003,4.60054,2470.624,2022-3-20T09:44:46Z
2022-03-20T07:46:13Z,42.805,6.029,13.3004,4.60053,2470.637,2022-3-20T09:47:49Z
2022-03-20T07:49:16Z,42.805,6.029,13.3010,4.60052,2470.661,2022-3-20T09:50:52Z
2022-03-20T07:52:19Z,42.805,6.029,13.3011,4.60079,2470.637,2022-3-20T09:53:56Z
2022-03-20T07:55:22Z,42.805,6.029,13.3021,4.60072,2470.646,2022-3-20T09:56:59Z
2022-03-20T07:58:25Z,42.805,6.029,13.3045,4.60072,2470.646,2022-3-20T10:00:02Z
2022-03-20T08:01:29Z,42.805,6.029,13.3021,4.60081,2470.637,2022-3-20T10:03:05Z
2022-03-20T08:04:32Z,42.805,6.029,13.3019,4.60069,2470.624,2022-3-20T10:06:08Z
2022-03-20T08:07:35Z,42.805,6.029,13.3031,4.60092,2470.624,2022-3-20T10:09:11Z
2022-03-20T08:10:38Z,42.805,6.029,13.3015,4.60069,2470.624,2022-3-20T10:12:14Z
2022-03-20T08:13:41Z,42.805,6.029,13.3011,4.60063,2470.637,2022-3-20T10:15:17Z
2022-03-20T08:16:44Z,42.805,6.029,13.3007,4.60065,2470.637,2022-3-20T10:18:21Z
2022-03-20T08:19:47Z,42.805,6.029,13.3026,4.60063,2470.624,2022-3-20T10:21:24Z
2022-03-20T08:22:50Z,42.805,6.029,13.3009,4.60049,2470.646,2022-3-20T10:24:27Z
2022-03-20T08:25:54Z,42.805,6.029,13.3007,4.60050,2470.6,2022-3-20T10:27:30Z
2022-03-20T08:28:57Z,42.805,6.029,13.3009,4.60056,2470.624,2022-3-20T10:30:33Z
2022-03-20T08:32:00Z,42.805,6.029,13.3046,4.60064,2470.6,2022-3-20T10:33:36Z
2022-03-20T08:35:03Z,42.805,6.029,13.3044,4.60073,2470.637,2022-3-20T10:36:39Z
2022-03-20T08:38:06Z,42.805,6.029,13.3045,4.60081,2470.661,2022-3-20T10:39:42Z
2022-03-20T08:41:09Z,42.805,6.029,13.3011,4.60077,2470.624,2022-3-20T10:42:46Z
2022-03-20T08:44:12Z,42.805,6.029,13.3041,4.60081,2470.637,2022-3-20T10:45:49Z
2022-03-20T08:47:15Z,42.805,6.029,13.3046,4.60064,2470.614,2022-3-20T10:48:52Z
2022-03-20T08:50:19Z,42.805,6.029,13.3036,4.60079,2470.637,2022-3-20T10:51:55Z
2022-03-20T08:53:22Z,42.805,6.029,13.3056,4.60067,2470.614,2022-3-20T10:54:58Z
2022-03-20T08:56:25Z,42.805,6.029,13.3021,4.60092,2470.637,2022-3-20T10:58:01Z
2022-03-20T08:59:28Z,42.805,6.029,13.3058,4.60082,2470.637,2022-3-20T11:01:04Z
2022-03-20T09:02:31Z,42.805,6.029,13.3048,4.60074,2470.637,2022-3-20T11:04:07Z
2022-03-20T09:05:34Z,42.805,6.029,13.3041,4.60073,2470.614,2022-3-20T11:07:11Z
2022-03-20T09:08:37Z,42.805,6.029,13.3034,4.60075,2470.614,2022-3-20T11:10:14Z
2022-03-20T09:11:40Z,42.805,6.029,13.3042,4.60086,2470.6,2022-3-20T11:13:17Z
2022-03-20T09:14:44Z,42.805,6.029,13.3037,4.60076,2470.637,2022-3-20T11:16:20Z
2022-03-20T09:17:47Z,42.805,6.029,13.3060,4.60087,2470.637,2022-3-20T11:19:23Z
2022-03-20T09:20:50Z,42.805,6.029,13.3031,4.60084,2470.624,2022-3-20T11:22:26Z
2022-03-20T09:23:53Z,42.805,6.029,13.3028,4.60074,2470.6,2022-3-20T11:25:29Z
2022-03-20T09:26:56Z,42.805,6.029,13.3048,4.60085,2470.577,2022-3-20T11:28:32Z
2022-03-20T09:29:59Z,42.805,6.029,13.3040,4.60062,2470.6,2022-3-20T11:31:36Z
2022-03-20T09:33:02Z,42.805,6.029,13.3044,4.60066,2470.591,2022-3-20T11:34:39Z
2022-03-20T09:36:06Z,42.805,6.029,13.3051,4.60095,2470.614,2022-3-20T11:37:42Z
2022-03-20T09:39:09Z,42.805,6.029,13.3029,4.60069,2470.614,2022-3-20T11:40:45Z
2022-03-20T09:42:12Z,42.805,6.029,13.3037,4.60072,2470.624,2022-3-20T11:43:48Z
2022-03-20T09:45:15Z,42.805,6.029,13.3033,4.60072,2470.591,2022-3-20T11:46:51Z
2022-03-20T09:48:18Z,42.805,6.029,13.3036,4.60060,2470.614,2022-3-20T11:49:54Z
2022-03-20T09:51:21Z,42.805,6.029,13.3043,4.60081,2470.591,2022-3-20T11:52:57Z
2022-03-20T09:54:24Z,42.805,6.029,13.3044,4.60085,2470.591,2022-3-20T11:56:01Z
2022-03-20T09:57:27Z,42.805,6.029,13.3050,4.60064,2470.577,2022-3-20T11:59:04Z
2022-03-20T10:00:31Z,42.805,6.029,13.3041,4.60074,2470.591,2022-3-20T12:02:07Z
2022-03-20T10:03:34Z,42.805,6.029,13.3032,4.60090,2470.591,2022-3-20T12:05:10Z
2022-03-20T10:06:37Z,42.805,6.029,13.3037,4.60085,2470.553,2022-3-20T12:08:13Z
2022-03-20T10:09:40Z,42.805,6.029,13.3063,4.60067,2470.591,2022-3-20T12:11:16Z
2022-03-20T10:12:43Z,42.805,6.029,13.3036,4.60072,2470.577,2022-3-20T12:14:19Z
2022-03-20T10:15:46Z,42.805,6.029,13.3058,4.60069,2470.614,2022-3-20T12:17:22Z
2022-03-20T10:18:49Z,42.805,6.029,13.3033,4.60062,2470.591,2022-3-20T12:20:26Z
2022-03-20T10:21:52Z,42.805,6.029,13.3042,4.60078,2470.577,2022-3-20T12:23:29Z
2022-03-20T10:24:56Z,42.805,6.029,13.3034,4.60059,2470.591,2022-3-20T12:26:32Z
2022-03-20T10:27:59Z,42.805,6.029,13.3026,4.60067,2470.553,2022-3-20T12:29:35Z
2022-03-20T10:31:02Z,42.805,6.029,13.3038,4.60075,2470.591,2022-3-20T12:32:38Z
2022-03-20T10:34:05Z,42.805,6.029,13.3034,4.60066,2470.567,2022-3-20T12:35:41Z
2022-03-20T10:37:08Z,42.805,6.029,13.3032,4.60073,2470.553,2022-3-20T12:38:44Z
2022-03-20T10:40:11Z,42.805,6.029,13.3036,4.60066,2470.577,2022-3-20T12:41:47Z
2022-03-20T10:43:14Z,42.805,6.029,13.3032,4.60064,2470.553,2022-3-20T12:44:51Z
2022-03-20T10:46:17Z,42.805,6.029,13.3038,4.60064,2470.567,2022-3-20T12:47:54Z
2022-03-20T10:49:21Z,42.805,6.029,13.3032,4.60066,2470.577,2022-3-20T12:50:57Z
2022-03-20T10:52:24Z,42.805,6.029,13.3033,4.60074,2470.553,2022-3-20T12:54:00Z
2022-03-20T10:55:27Z,42.805,6.029,13.3036,4.60069,2470.553,2022-3-20T12:57:03Z
2022-03-20T10:58:30Z,42.805,6.029,13.3041,4.60057,2470.567,2022-3-20T13:00:06Z
2022-03-20T11:01:33Z,42.805,6.029,13.3039,4.60067,2470.544,2022-3-20T13:03:09Z
2022-03-20T11:04:36Z,42.805,6.029,13.3035,4.60067,2470.567,2022-3-20T13:06:12Z
2022-03-20T11:07:39Z,42.805,6.029,13.3034,4.60064,2470.544,2022-3-20T13:09:16Z
2022-03-20T11:10:42Z,42.805,6.029,13.3039,4.60087,2470.553,2022-3-20T13:12:19Z
2022-03-20T11:13:46Z,42.805,6.029,13.3033,4.60066,2470.52,2022-3-20T13:15:22Z
2022-03-20T11:16:49Z,42.805,6.029,13.3034,4.60060,2470.53,2022-3-20T13:18:25Z
2022-03-20T11:19:52Z,42.805,6.029,13.3030,4.60066,2470.553,2022-3-20T13:21:28Z
2022-03-20T11:22:55Z,42.805,6.029,13.3033,4.60062,2470.567,2022-3-20T13:24:31Z
2022-03-20T11:25:58Z,42.805,6.029,13.3031,4.60062,2470.53,2022-3-20T13:27:34Z
2022-03-20T11:29:01Z,42.805,6.029,13.3034,4.60061,2470.53,2022-3-20T13:30:37Z
2022-03-20T11:32:04Z,42.805,6.029,13.3034,4.60069,2470.507,2022-3-20T13:33:41Z
2022-03-20T11:35:07Z,42.805,6.029,13.3049,4.60064,2470.553,2022-3-20T13:36:44Z
2022-03-20T11:38:11Z,42.805,6.029,13.3037,4.60064,2470.544,2022-3-20T13:39:47Z
2022-03-20T11:41:14Z,42.805,6.029,13.3039,4.60068,2470.544,2022-3-20T13:42:50Z
2022-03-20T11:44:17Z,42.805,6.029,13.3027,4.60067,2470.53,2022-3-20T13:45:53Z
2022-03-20T11:47:20Z,42.805,6.029,13.3034,4.60070,2470.553,2022-3-20T13:48:56Z
2022-03-20T11:50:23Z,42.805,6.029,13.3039,4.60069,2470.53,2022-3-20T13:51:59Z
2022-03-20T11:53:26Z,42.805,6.029,13.3045,4.60072,2470.507,2022-3-20T13:55:03Z
2022-03-20T11:56:29Z,42.805,6.029,13.3049,4.60072,2470.507,2022-3-20T13:58:06Z
2022-03-20T11:59:32Z,42.805,6.029,13.3039,4.60059,2470.52,2022-3-20T14:01:09Z
2022-03-20T12:02:36Z,42.805,6.029,13.3039,4.60064,2470.52,2022-3-20T14:04:12Z
2022-03-20T12:05:39Z,42.805,6.029,13.3034,4.60055,2470.497,2022-3-20T14:07:15Z
2022-03-20T12:08:42Z,42.805,6.029,13.3028,4.60062,2470.507,2022-3-20T14:10:18Z
2022-03-20T12:11:45Z,42.805,6.029,13.3030,4.60064,2470.52,2022-3-20T14:13:21Z
2022-03-20T12:14:48Z,42.805,6.029,13.3040,4.60058,2470.507,2022-3-20T14:16:24Z
2022-03-20T12:17:51Z,42.805,6.029,13.3034,4.60067,2470.52,2022-3-20T14:19:28Z
2022-03-20T12:20:54Z,42.805,6.029,13.3039,4.60060,2470.483,2022-3-20T14:22:31Z
2022-03-20T12:23:57Z,42.805,6.029,13.3029,4.60058,2470.497,2022-3-20T14:25:34Z
2022-03-20T12:27:01Z,42.805,6.029,13.3029,4.60067,2470.507,2022-3-20T14:28:37Z
2022-03-20T12:30:04Z,42.805,6.029,13.3028,4.60063,2470.497,2022-3-20T14:31:40Z
2022-03-20T12:33:07Z,42.805,6.029,13.3024,4.60066,2470.483,2022-3-20T14:34:43Z
2022-03-20T12:36:10Z,42.805,6.029,13.3035,4.60061,2470.46,2022-3-20T14:37:46Z
2022-03-20T12:39:13Z,42.805,6.029,13.3039,4.60062,2470.497,2022-3-20T14:40:49Z
2022-03-20T12:42:16Z,42.805,6.029,13.3039,4.60062,2470.474,2022-3-20T14:43:53Z
2022-03-20T12:45:19Z,42.805,6.029,13.3046,4.60062,2470.497,2022-3-20T14:46:56Z
2022-03-20T12:48:23Z,42.805,6.029,13.3040,4.60059,2470.474,2022-3-20T14:49:59Z
2022-03-20T12:51:26Z,42.805,6.029,13.3038,4.60063,2470.45,2022-3-20T14:53:02Z
2022-03-20T12:54:29Z,42.805,6.029,13.3030,4.60062,2470.46,2022-3-20T14:56:05Z
2022-03-20T12:57:32Z,42.805,6.029,13.3043,4.60067,2470.46,2022-3-20T14:59:08Z
2022-03-20T13:00:35Z,42.805,6.029,13.3045,4.60055,2470.474,2022-3-20T15:02:11Z
2022-03-20T13:03:38Z,42.805,6.029,13.3023,4.60062,2470.437,2022-3-20T15:05:14Z
2022-03-20T13:06:41Z,42.805,6.029,13.3035,4.60062,2470.474,2022-3-20T15:08:18Z
2022-03-20T13:09:44Z,42.805,6.029,13.3046,4.60072,2470.46,2022-3-20T15:11:21Z
2022-03-20T13:12:47Z,42.805,6.029,13.3029,4.60058,2470.474,2022-3-20T15:14:24Z
2022-03-20T13:15:51Z,42.805,6.029,13.3034,4.60066,2470.46,2022-3-20T15:17:27Z
2022-03-20T13:18:54Z,42.805,6.029,13.3036,4.60066,2470.427,2022-3-20T15:20:30Z
2022-03-20T13:21:57Z,42.805,6.029,13.3042,4.60066,2470.413,2022-3-20T15:23:33Z
2022-03-20T13:25:00Z,42.805,6.029,13.3036,4.60061,2470.427,2022-3-20T15:26:36Z
2022-03-20T13:28:03Z,42.805,6.029,13.3030,4.60062,2470.413,2022-3-20T15:29:39Z
2022-03-20T13:31:06Z,42.805,6.029,13.3041,4.60062,2470.437,2022-3-20T15:32:43Z
2022-03-20T13:34:09Z,42.805,6.029,13.3041,4.60064,2470.427,2022-3-20T15:35:46Z
2022-03-20T13:37:12Z,42.805,6.029,13.3039,4.60067,2470.45,2022-3-20T15:38:49Z
2022-03-20T13:40:16Z,42.805,6.029,13.3032,4.60059,2470.413,2022-3-20T15:41:52Z
2022-03-20T13:43:19Z,42.805,6.029,13.3039,4.60056,2470.404,2022-3-20T15:44:55Z
2022-03-20T13:46:22Z,42.805,6.029,13.3042,4.60059,2470.437,2022-3-20T15:47:58Z
2022-03-20T13:49:25Z,42.805,6.029,13.3061,4.60067,2470.413,2022-3-20T15:51:01Z
2022-03-20T13:52:28Z,42.805,6.029,13.3043,4.60059,2470.39,2022-3-20T15:54:04Z
2022-03-20T13:55:31Z,42.805,6.029,13.3037,4.60059,2470.413,2022-3-20T15:57:08Z
2022-03-20T13:58:34Z,42.805,6.029,13.3043,4.60064,2470.413,2022-3-20T16:00:11Z
2022-03-20T14:01:37Z,42.805,6.029,13.3031,4.60062,2470.404,2022-3-20T16:03:14Z
2022-03-20T14:04:41Z,42.805,6.029,13.3039,4.60062,2470.427,2022-3-20T16:06:17Z
2022-03-20T14:07:44Z,42.805,6.029,13.3034,4.60063,2470.366,2022-3-20T16:09:20Z
2022-03-20T14:10:47Z,42.805,6.029,13.3035,4.60059,2470.39,2022-3-20T16:12:23Z
2022-03-20T14:13:50Z,42.805,6.029,13.3030,4.60054,2470.404,2022-3-20T16:15:26Z
2022-03-20T14:16:53Z,42.805,6.029,13.3030,4.60061,2470.404,2022-3-20T16:18:29Z
2022-03-20T14:19:56Z,42.805,6.029,13.3030,4.60060,2470.404,2022-3-20T16:21:33Z
2022-03-20T14:22:59Z,42.805,6.029,13.3037,4.60058,2470.366,2022-3-20T16:24:36Z
2022-03-20T14:26:02Z,42.805,6.029,13.3038,4.60063,2470.38,2022-3-20T16:27:39Z
2022-03-20T14:29:06Z,42.805,6.029,13.3031,4.60065,2470.427,2022-3-20T16:30:42Z
2022-03-20T14:32:09Z,42.805,6.029,13.3036,4.60063,2470.38,2022-3-20T16:33:45Z
2022-03-20T14:35:12Z,42.805,6.029,13.3036,4.60059,2470.366,2022-3-20T16:36:48Z
2022-03-20T14:38:15Z,42.805,6.029,13.3024,4.60055,2470.366,2022-3-20T16:39:51Z
2022-03-20T14:41:18Z,42.805,6.029,13.3039,4.60059,2470.366,2022-3-20T16:42:54Z
2022-03-20T14:44:21Z,42.805,6.029,13.3035,4.60066,2470.404,2022-3-20T16:45:58Z
2022-03-20T14:47:24Z,42.805,6.029,13.3038,4.60060,2470.366,2022-3-20T16:49:01Z
2022-03-20T14:50:27Z,42.805,6.029,13.3034,4.60062,2470.38,2022-3-20T16:52:04Z
2022-03-20T14:53:31Z,42.805,6.029,13.3038,4.60064,2470.366,2022-3-20T16:55:07Z
2022-03-20T14:56:34Z,42.805,6.029,13.3059,4.60057,2470.38,2022-3-20T16:58:10Z
2022-03-20T14:59:37Z,42.805,6.029,13.3041,4.60059,2470.366,2022-3-20T17:01:13Z
2022-03-20T15:02:40Z,42.805,6.029,13.3042,4.60064,2470.343,2022-3-20T17:04:16Z
2022-03-20T15:05:43Z,42.805,6.029,13.3044,4.60067,2470.343,2022-3-20T17:07:19Z
2022-03-20T15:08:46Z,42.805,6.029,13.3049,4.60060,2470.343,2022-3-20T17:10:23Z
2022-03-20T15:11:49Z,42.805,6.029,13.3042,4.60064,2470.357,2022-3-20T17:13:26Z
2022-03-20T15:14:52Z,42.805,6.029,13.3046,4.60076,2470.366,2022-3-20T17:16:29Z